CZ-4 DEB

Satellite information

Favourite Embed

Satellite Type and Status

DEBRISIN ORBIT

Key statistics

Satellite CZ-4 DEB at a glance.

Uptime

9460

Days in orbit

Revolutions

≈ 14.2

Per day

Orbit

SSO

Sun Synchronous Orbit

Inclination

98.7

Latest

Satellite identification and parameters

Extended collection of information and parameters for CZ-4 DEB.

Object identification

Identified? True

Debris? True

Object name: CZ-4 DEB

International designator: 1999-057MV

Object number (NORAD): 27762

Object ID (CCSDS): 27762

Country: PEOPLES REPUBLIC OF CHINA (PRC)

Current information (Y/N): Y

RCS size: SMALL

Orbital parameters

Period: 101.432 minutes

Inclination: 98.6607 deg

SMA: 7204.602 km

Apoapsis: 947.993 km

Periapsis: 704.941 km

RAAN: 5.4516 deg

Eccentricy: 0.01686778

Argument of periapsis: 191.3348 deg

Mean anomaly: 201.7957 deg

Mean motion: 14.19671163 rev/day

Mean motion (dot): 0.0000336 rev/day2

B* drag term: 0.0013961331 1/REarth

Two-line elements (TLE)

Creation date: Sept. 4, 2025, 10:13 a.m.

Reference frame: TEME

Reference center: EARTH

Epoch: Sept. 4, 2025, 6:50 a.m. UTC

TLE line 0: 0 CZ-4 DEB

TLE line 1: 1 27762U 99057MV 25247.28475850 .00003360 00000-0 13961-2 0 9997

TLE line 2: 2 27762 98.6607 5.4516 0168678 191.3348 201.7957 14.19671163222532

Live tracking on map

Real-time ground track for satellite CZ-4 DEB.

In-orbit conjunctions

A list of the most updated potential collisions computed for object CZ-4 DEB.

Target Orbit TCA Probability of collision Miss distance Type
SL-16 DEB LEO 2025-08-25 05:58:16 0.0001201859 261.0 (m) DEBRIS
CZ-6A DEB LEO 2024-12-31 13:15:15 0.0001875469 280.0 (m) DEBRIS
FENGYUN 1C DEB SSO 2024-08-28 20:12:28 0.000226589 150.0 (m) DEBRIS

Associated space launch

The CBERS (China Brazil Earth Resources Satellite) or ZY 1 (Zi Yuan) satellites are designed for global coverage and include cameras to make optical observations and a data collecting system to gather data on the environment. They are unique systems due to the use of on-board sensors which combine features that are especially designed to resolve the broad range of space and time scales involved in the monitoring and preservation of the ecosystem. They are operated jointly by the China Centre for Resources Satellite Data and Application (CRESDA) and the Brazilian INPE (Instituto Nacional de Pesquisas Espaciais, National Institute of Space Research).

CZ-4 DEB was lifted into orbit during the mission ‘Long March 4B | Zi Yuan 1-1’, on board a Long March 4B space rocket.

The launch took place on Oct. 14, 1999, 3:15 a.m. from Launch Complex 7.

For more information about the launch, click the button.

Launch to space Long March 4B | Zi Yuan 1-1
Long March 4B | Zi Yuan 1-1

Agency: N/A

Status: Launch Successful

Launch date: Oct. 14, 1999, 3:15 a.m. UTC

Rocket: Long March 4B

Launch pad: Launch Complex 7

Location: Taiyuan Satellite Launch Center, People's Republic of China

...

Latest news about this satellite

There are no fresh news available about this satellite. Check back as we update our databases every day.


Newsletter sign-up

Weekly statistics, charts and insights to help you stay on top of the space industry.